Regional Weather Roundup
Issued by NWS

Home | Current Version | Previous Version | Graphics & Text | Print | Product List | Glossary On
Versions: 1 2 3 4 5 6 7 8 9 10 11 12 13 14 15 16 17 18 19 20 21 22 23 24 25 26 27 28 29 30 31 32 33 34 35 36 37 38 39 40 41 42 43 44 45 46 47 48 49 50
000
ASUS43 KIND 230659
RWRIN

WEATHER ROUNDUP FOR INDIANA
NATIONAL WEATHER SERVICE INDIANAPOLIS IN
200 AM EST MON JAN 23 2017

NOTE: "FAIR" INDICATES FEW OR NO CLOUDS BELOW 12,000 FEET WITH NO
SIGNIFICANT WEATHER AND/OR OBSTRUCTIONS TO VISIBILITY.

* - STATION DOES NOT REPORT WEATHER SUCH AS PRECIPITATION OR FOG.

+ - STATION NOT QUALITY CONTROLLED BY THE NATIONAL WEATHER SERVICE.
    USE DATA WITH CAUTION...ESPECIALLY DEWPOINT AND RELATIVE
    HUMIDITY OBSERVATIONS.

INZ001>003-010>013-019-020-230800-
NORTHWEST INDIANA

CITY           SKY/WX    TMP DP  RH WIND       PRES   REMARKS
MONTICELLO +   CLOUDY    42  40  95 N14       29.59F FOG

$$

LMZ046-743>745-230800-
SOUTHERN LAKE MICHIGAN

STATION/POSITION TIME  TEMP    WIND        PRES    WAVE
                       AIR SEA DIR/SP/G            HT
                 (UTC) (F)     (DEG/KT/KT) (MB)    (FT)
BURNS HARBOR     0640   36     360/ 12/ 14 1005.4F
MICHIGAN CITY    0630   37     340/ 13/ 14   N/A

$$

INZ004-005-014>016-021>024-230800-
NORTH CENTRAL INDIANA

CITY           SKY/WX    TMP DP  RH WIND       PRES   REMARKS
GOSHEN         FOG       43  41  93 N10       29.59F VSB 1/2
PERU/GRISSOM   FOG       45  45 100 N13       29.55F VSB 3/4
SOUTH BEND     FOG       40  40 100 N8        29.64S VSB 3/4

$$

INZ006>009-017-018-025>027-230800-
NORTHEAST INDIANA

CITY           SKY/WX    TMP DP  RH WIND       PRES   REMARKS
ANGOLA *+      CLOUDY    43  30  61 N6        29.57F
FORT WAYNE     FOG       48  46  93 N12       29.55F VSB 1
KENDALLVILLE + CLOUDY    44  44 100 N7        29.58F FOG

$$

INZ028-029-035-036-043>045-051>053-230800-
WEST CENTRAL INDIANA

CITY           SKY/WX    TMP DP  RH WIND       PRES   REMARKS
CRAWFORDSVL +  FOG       41  41 100 N12G17    29.57R VSB 1/2
LAFAYETTE      CLOUDY    41  41 100 N12G18    29.59F FOG
TERRE HAUTE    CLOUDY    45  42  89 N14G22    29.56R

$$

INZ030>032-037>040-046>048-054>057-064-065-230800-
CENTRAL INDIANA

CITY           SKY/WX    TMP DP  RH WIND       PRES   REMARKS
INDIANAPOLIS   CLOUDY    49  47  93 N16       29.52S FOG
-EAGLE CREEK   CLOUDY    49  46  90 N13       29.52F FOG
KOKOMO +       LGT RAIN  46  45  96 N13       29.56F VSB 1/2
MT COMFORT *+  CLOUDY    48  48 100 N16       29.51F
SHELBYVILLE    CLOUDY    50  46  86 N15       29.47F

$$

INZ033-034-041-042-049-050-058-059-230800-
EAST CENTRAL INDIANA

CITY           SKY/WX    TMP DP  RH WIND       PRES   REMARKS
MUNCIE         FOG       49  47  93 N13       29.51F VSB 3/4

$$

INZ060-061-067>069-081>083-085>088-230800-
SOUTHWEST INDIANA

CITY           SKY/WX    TMP DP  RH WIND       PRES   REMARKS
EVANSVILLE     CLOUDY    50  46  86 NW16G24   29.50R
HUNTINGBURG *+ CLOUDY    52  48  87 NW14      29.46R

$$

INZ062-063-066-070>080-084-089>092-230800-
SOUTH CENTRAL AND SOUTHEAST INDIANA

CITY           SKY/WX    TMP DP  RH WIND       PRES   REMARKS
BLOOMINGTON    CLOUDY    50  46  86 N17G24    29.49S
MADISON *+     CLOUDY    55  46  71 N5        29.43S
SEYMOUR +      CLOUDY    54  48  82 N15       29.44S

$$





USA.gov is the U.S. government's official web portal to all federal, state and local government web resources and services.